User: anonymous   Login
Location: *
(49.0044°N, 9.5056°E)
Time: 19:32:15
(UTC+00:00)
Language:

ERBS - Orbit

View from above orbital plane
View from above orbital plane
View from above satellite
View from above satellite

Ground track
Ground track

The orbit data is extracted from the following two-line orbital elements,

1 15354U 84108B   19316.47183794  .00002865  00000-0  60962-4 0  9990
2 15354  57.0062 302.0390 0010330  21.3751 338.7736 15.48467537934051
Epoch (UTC): 12 November 2019 11:19:26
Eccentricity: 0.0010330
inclination: 57.0062°
perigee height: 414 km
apogee height: 428 km
right ascension of ascending node: 302.0390°
argument of perigee: 21.3751°
revolutions per day: 15.48467537
mean anomaly at epoch: 338.7736°
orbit number at epoch: 93405

The dashed part of the orbit path shows where the satellite is in the earth's shadow,  

DLR